Home   Weather   Paphos   Past weeks

Flag for Cyprus Past Weather in Paphos, Cyprus — Yesterday and Last 2 Weeks

Now
70 °F

Passing clouds.


Feels Like: 70 °F
Forecast: 52 / 65 °F
Wind: 13 mph from West

Location: Paphos Airport

Current Time: Dec 5, 2016 at 2:39:21 pm

Latest Report: Dec 5, 2016 at 2:00 pm


Visibility: N/A

Pressure: 30.15 "Hg

Humidity: 57%

Dew Point: 54 °F

Location of PaphosLocation

Past Weather in Paphos — Graph

°F

Paphos Temperature Yesterday

Maximum temperature yesterday: 68 °F (at 10:00 am)
Minimum temperature yesterday: 52 °F (at 4:30 am)
Average temperature yesterday: 59 °F

High & Low Weather Summary for the Past Weeks

 TemperatureHumidityPressure
High79 °F (Nov 21, 12:30 pm)94% (Dec 1, 6:00 am)30.27 "Hg (Dec 1, 6:00 am)
Low50 °F (Nov 25, 4:30 am)44% (Nov 22, 10:00 am)29.59 "Hg (Dec 1, 1:30 pm)
Average62 °F61%30.03 "Hg
* Reported Nov 20 1:00 pm — Dec 5 1:30 pm, Paphos, Weather by CustomWeather, © 2016

Note: Actual official high and low records may vary slightly from our data, if they occured in-between our weather recording intervals... More about our weather records

Advertising

Paphos Weather History for the Previous 24 Hours

Scroll right to see more
 ConditionsComfort  
Time TempWeatherWind HumidityBarometerVisibility
1:30 pm
Mon, Dec 5
70 °FPassing clouds.12 mph57%30.18 "HgN/A
1:00 pm68 °FPassing clouds.8 mph64%30.18 "HgN/A
12:30 pm70 °FPassing clouds.6 mph60%30.18 "HgN/A
12:00 pm70 °FPassing clouds.6 mph60%30.18 "HgN/A
11:30 am70 °FPassing clouds.7 mph57%30.18 "HgN/A
11:00 am68 °FPassing clouds.6 mph60%30.18 "HgN/A
10:30 am68 °FPassing clouds.3 mph56%30.21 "HgN/A
10:00 am70 °FPassing clouds.2 mph53%30.21 "HgN/A
9:30 am68 °FPassing clouds.2 mph56%30.21 "HgN/A
9:00 am63 °FPassing clouds.3 mph64%30.21 "HgN/A
8:30 am59 °FPassing clouds.8 mph68%30.21 "HgN/A
8:00 am57 °FScattered clouds.9 mph72%30.21 "HgN/A
7:30 am55 °FScattered clouds.9 mph77%30.18 "HgN/A
7:00 am55 °FScattered clouds.8 mph77%30.18 "HgN/A
6:30 am55 °FPassing clouds.8 mph77%30.21 "HgN/A
6:00 am54 °FClear.9 mph82%30.18 "Hg10 mi
5:30 am54 °FClear.9 mph77%30.18 "Hg10 mi
5:00 am54 °FClear.9 mph82%30.18 "Hg10 mi
4:30 am54 °FCool.9 mph82%30.18 "HgN/A
4:00 am54 °FCool.10 mph82%30.18 "HgN/A
3:30 am54 °FCool.9 mph82%30.18 "HgN/A
3:00 am55 °FCool.9 mph77%30.18 "HgN/A
2:30 am55 °FCool.9 mph77%30.21 "HgN/A
2:00 am55 °FClear.9 mph77%30.21 "Hg10 mi
1:30 am55 °FClear.9 mph77%30.18 "Hg10 mi
1:00 am55 °FClear.10 mph77%30.21 "Hg10 mi
12:30 am55 °FClear.8 mph77%30.21 "Hg10 mi
12:00 am55 °FClear.9 mph77%30.21 "Hg10 mi
11:30 pm
Sun, Dec 4
55 °FPassing clouds.10 mph77%30.21 "HgN/A
11:00 pm55 °FPassing clouds.9 mph77%30.21 "HgN/A
10:30 pm57 °FPassing clouds.9 mph72%30.24 "HgN/A
10:00 pm57 °FPassing clouds.8 mph72%30.24 "HgN/A
9:30 pm57 °FPassing clouds.8 mph72%30.24 "HgN/A
9:00 pm57 °FPassing clouds.8 mph77%30.24 "HgN/A
8:30 pm59 °FPassing clouds.7 mph72%30.24 "HgN/A
8:00 pm59 °FPassing clouds.7 mph72%30.24 "HgN/A
7:30 pm59 °FPassing clouds.3 mph72%30.24 "HgN/A
7:00 pm59 °FPassing clouds.2 mph72%30.24 "HgN/A
6:30 pm59 °FPassing clouds.2 mph72%30.24 "HgN/A
6:00 pm59 °FPassing clouds.3 mph72%30.24 "HgN/A
5:30 pm59 °FPassing clouds.3 mph77%30.21 "HgN/A
5:00 pm61 °FPassing clouds.2 mph68%30.21 "HgN/A
4:30 pm64 °FPassing clouds.3 mph64%30.21 "HgN/A
4:00 pm66 °FPassing clouds.3 mph56%30.21 "HgN/A
3:30 pm66 °FPassing clouds.3 mph56%30.21 "HgN/A
3:00 pm68 °FPassing clouds.3 mph56%30.21 "HgN/A
2:30 pm68 °FPassing clouds.2 mph56%30.21 "HgN/A
2:00 pm66 °FPassing clouds.3 mph60%30.24 "HgN/A
Weather by CustomWeather, © 2016

See weather overviewHow to use our weather pages